Location: Boiro
(42.6475°N, 8.8834°W)
Time: 01:39:51
(UTC+01:00)

Transit 2A Rocket - Pass Details

Date: 30 November 2021
Orbit: 584 x 917 km, 66.7° (Epoch: 23 January)

Event Time Altitude Azimuth Distance (km) Brightness Sun altitude
Rises 20:34:57 0° 312° (NW) 3,540 9.0 -27.3°
Reaches altitude 10° 20:38:44 10° 289° (WNW) 2,558 8.5 -28.0°
Maximum altitude 20:41:43 14° 259° (W) 2,222 8.2 -28.5°
Drops below altitude 10° 20:44:37 10° 228° (SW) 2,465 8.2 -29.0°
Sets 20:48:11 0° 204° (SSW) 3,326 8.6 -29.7°
